Estación Meteorológica Peña el Pijo (Robertgarden) [ 02/19/20 15:26:16 CET ]

Fecha Hora Presion(HPa) Temp (°C) Humedad % Rocio (°C) Viento ( m/s) Direccion Lluvia 1Hora(mm) Lluvia 24H(mm) LLuvia Total(mm)
2020-Feb-03 01:09:12 1020.300 - - - - N     39.88
2020-Feb-03 02:14:34 1020.200 - - - - N     39.88
2020-Feb-03 03:09:12 1020.000 - - - - N     39.88
2020-Feb-03 04:09:22 1019.500 - - - - N     39.88
2020-Feb-03 05:09:25 1019.500 - - - - N     39.88
2020-Feb-03 06:09:00 1019.500 - - - - N     39.88
2020-Feb-03 07:08:58 1019.800 - - - - N     39.88
2020-Feb-03 08:08:51 1020.400 - - - - N     39.88
2020-Feb-03 09:08:53 1020.700 - - - - N     39.88
2020-Feb-03 10:09:20 1020.800 - - - - N     39.88
2020-Feb-03 11:09:19 1020.600 - - - - N     39.88
2020-Feb-03 12:09:20 1019.900 - - - - N     39.88
2020-Feb-03 13:09:24 1019.100 - - - - N     39.88
2020-Feb-03 14:09:09 1018.300 - - - - N     39.88
2020-Feb-03 15:08:58 1017.500 - - - - N     39.88
2020-Feb-03 16:09:05 1017.500 - - - - N     39.88
2020-Feb-03 17:09:16 1017.400 - - - - N     39.88
2020-Feb-03 18:09:17 1017.500 - - - - N     39.88
2020-Feb-03 19:08:51 1018.500 - - - - N     39.88
2020-Feb-03 20:08:52 1019.200 - - - - N     39.88
2020-Feb-03 21:09:02 1019.800 - - - - N     39.88
2020-Feb-03 22:09:33 1020.200 - - - - N     39.88
2020-Feb-03 23:08:59 1020.200 - - - - N     39.88

Temperatura Máxima:    Temperatura Mínima:
Presión Máxima:1020.800 Hpa    Presión Mínima:1017.400 Hpa


Volver